[[{"header":{"parameterUnit":"m.s-1","parameterCategory":1,"la1":30.2991,"la2":30.254,"lo1":-89.0895,"lo2":-89.0444,"dy":0.0017,"dx":0.0017,"nx":28,"ny":28,"refTime":"2024-03-11T09:00:00:Z","depth":0,"parameterNumber":2,"parameterNumberName":"U-component_of_WINDS"},"data":[0,0,0,0,0,0,0,0,0,0,0,0,0,0,0,0,0,0,0,0,0,0,0,0,0,0,0,0,0,0,0,0,0,0,0,0,0,0,0,0,0,0,0,0,0,0,0,0,0,0,0,0,0,0,0,0,0,0,-2.0661,-2.066,0,-2.0589,-2.0588,-2.0588,-2.0448,-2.0445,-2.0442,-2.0439,-2.0371,-2.0371,-2.0372,0,0,0,0,0,0,0,0,0,0,0,0,0,-2.0683,-2.0683,-2.0661,-2.066,-2.0659,-2.0589,-2.0588,-2.0587,-2.0448,-2.0445,-2.0441,-2.0438,-2.037,-2.0371,-2.0372,0,0,0,0,0,0,0,0,0,0,0,0,0,-2.0649,-2.0683,-2.0661,-2.0581,-2.0573,-2.0589,-2.0588,-2.0587,-2.0449,-2.0445,-2.044,-2.0437,-2.037,-2.0371,-2.0372,-2.0462,0,0,-2.0376,-2.0376,0,0,0,0,0,0,0,0,-2.0651,-2.0648,-2.0594,-2.0587,-2.0578,-2.0523,-2.057,-2.0545,-2.045,-2.0496,-2.0439,-2.0435,-2.0425,-2.0421,-2.0417,-2.0459,-2.0456,-2.0376,-2.0377,-2.0377,-2.0377,0,0,0,0,0,0,0,-2.0653,-2.065,-2.0633,-2.0593,-2.0583,-2.0551,-2.0541,-2.0565,-2.0485,-2.0492,-2.0481,-2.0475,-2.042,-2.0416,-2.0415,-2.0455,-2.0376,-2.0377,-2.0377,-2.0378,-2.0569,-2.0573,0,0,0,0,0,0,-2.0666,-2.0653,-2.0635,-2.063,-2.0605,-2.0554,-2.0543,-2.0545,-2.0484,-2.0471,-2.0478,-2.0468,-2.0417,-2.0413,-2.0412,-2.0513,-2.0377,-2.0378,-2.0379,-2.0564,-2.0569,-2.0574,0,0,0,0,0,0,-2.0668,-2.0666,-2.0638,-2.0639,-2.0633,-2.0557,-2.0561,-2.0546,-2.0542,-2.0474,-2.0459,-2.0489,-2.0413,-2.041,-2.0451,-2.0509,-2.0379,-2.038,-2.0559,-2.0566,-2.0572,-2.0718,0,0,0,0,0,0,-2.0669,-2.0667,-2.0699,-2.0641,-2.0633,-2.0677,-2.0564,-2.0547,-2.0544,-2.053,-2.048,-2.0468,-2.041,-2.045,-2.0452,-2.0508,-2.038,-2.0553,-2.0562,-2.057,-2.0707,-2.0728,-2.0747,0,0,0,0,0,-2.067,-2.0744,-2.0702,-2.07,-2.0671,-2.068,-2.0676,-2.0606,-2.0549,-2.0581,-2.0538,-2.047,-2.0503,-2.0455,-2.0456,-2.0514,-2.0549,-2.056,-2.0569,-2.0699,-2.0724,-2.0746,0,0,0,0,0,0,-2.0813,-2.0735,-2.0687,-2.0744,-2.072,-2.0657,-2.0695,-2.0636,-2.0628,-2.0616,-2.0531,-2.0521,-2.0574,-2.0548,-2.0496,-2.0598,-2.0515,-2.0526,-2.0613,-2.0637,-2.0656,-2.0662,-2.0381,0,0,0,0,0,-2.0851,-2.0863,-2.0795,-2.0851,-2.0842,-2.0771,-2.0772,-2.0721,-2.0693,-2.0682,-2.0642,-2.0619,-2.0624,-2.0629,-2.063,-2.0703,-2.0691,-2.0744,-2.0763,-2.078,-2.079,-2.0828,-2.0851,-2.0607,-2.0607,-2.0606,0,0,-2.0929,-2.0888,-2.0901,-2.0879,-2.0854,-2.0871,-2.0763,-2.0785,-2.0797,-2.0686,-2.0721,-2.0692,-2.066,-2.0718,-2.0742,-2.0698,-2.0855,-2.0792,-2.0806,-2.0807,-2.0841,-2.0864,-2.0885,-2.0613,-2.0612,-2.0611,0,0,-2.1081,-2.1051,-2.1095,-2.1072,-2.1036,-2.0989,-2.1,-2.0946,-2.0921,-2.0956,-2.0873,-2.0887,-2.0897,-2.0879,-2.0871,-2.1018,-2.0956,-2.1021,-2.1124,-2.1162,-2.1181,-2.1198,-2.1252,-2.1272,-2.1032,-2.1032,-2.1032,0,-2.1184,-2.1203,-2.1126,-2.1153,-2.1146,-2.1046,-2.1091,-2.1074,-2.1041,-2.1039,-2.0991,-2.1002,-2.0974,-2.1027,-2.1063,-2.106,-2.1071,-2.1026,-2.1184,-2.12,-2.1215,-2.1265,-2.1285,-2.104,-2.1039,-2.1038,-2.1038,0,-2.1332,-2.1347,-2.1388,-2.1357,-2.1355,-2.1391,-2.1321,-2.1329,-2.1279,-2.1237,-2.1275,-2.1238,-2.123,-2.1239,-2.119,-2.1285,-2.126,-2.12,-2.1114,-2.1248,-2.1293,-2.1312,-2.1052,-2.1049,-2.1047,-2.1044,0,0,-2.157,-2.1497,-2.1513,-2.1498,-2.1452,-2.1463,-2.1496,-2.1487,-2.1496,-2.1477,-2.1504,-2.1516,-2.146,-2.1451,-2.1399,-2.1433,-2.1554,-2.1368,-2.1366,-2.1405,-2.1658,-2.1705,-2.1728,-2.1512,-2.1515,-2.1518,-2.1661,0,-2.1712,-2.1762,-2.1694,-2.176,-2.1774,-2.168,-2.1709,-2.1685,-2.1648,-2.1656,-2.1615,-2.1625,-2.155,-2.1545,-2.1574,-2.1533,-2.1603,-2.1521,-2.1537,-2.1539,-2.1548,-2.1751,-2.18,-2.1937,-2.1679,-2.1682,-2.1684,0,-2.1883,-2.1871,-2.1939,-2.1889,-2.1892,-2.1919,-2.1907,-2.1915,-2.1887,-2.1857,-2.1849,-2.1787,-2.1818,-2.1735,-2.1778,-2.1724,-2.1727,-2.1708,-2.1711,-2.171,-2.162,-2.1757,-2.1979,-2.2,-2.1711,-2.1709,-2.1707,0,-2.2051,-2.2053,-2.2093,-2.2083,-2.2026,-2.2048,-2.2026,-2.1993,-2.1992,-2.1982,-2.1981,-2.1976,-2.1973,-2.1971,-2.191,-2.1856,-2.1961,-2.1873,-2.1939,-2.1941,-2.1966,-2.1965,-2.2192,-2.1967,-2.1967,-2.1967,-2.1966,0,-2.2216,-2.2261,-2.2168,-2.2193,-2.2241,-2.2164,-2.2215,-2.2183,-2.2156,-2.2174,-2.2093,-2.2113,-2.2031,-2.2043,-2.1996,-2.2039,-2.2039,-2.2017,-2.2004,-2.2025,-2.2028,-2.2025,-2.2015,-2.1972,-2.1971,-2.197,-2.1969,0,-2.2412,-2.2351,-2.2389,-2.2332,-2.2319,-2.2358,-2.2309,-2.2332,-2.229,-2.2315,-2.2316,-2.2251,-2.2261,-2.22,-2.2199,-2.2168,-2.2234,-2.2205,-2.2244,-2.2235,-2.2305,-2.2299,-2.2538,-2.2566,-2.2324,-2.2327,-2.2329,0,-2.2521,-2.2554,-2.25,-2.2506,-2.2488,-2.2499,-2.2498,-2.2424,-2.2427,-2.2398,-2.2425,-2.2428,-2.2426,-2.2446,-2.24,-2.24,-2.237,-2.2454,-2.2369,-2.239,-2.2372,-2.2371,-2.2375,-2.2472,-2.2475,-2.2477,-2.2479,0,-2.2722,-2.2691,-2.2692,-2.2683,-2.2684,-2.2674,-2.2659,-2.2669,-2.259,-2.2598,-2.2606,-2.2605,-2.2604,-2.2609,-2.2599,-2.2578,-2.2517,-2.2506,-2.2522,-2.2543,-2.2565,-2.2555,-2.2292,-2.2501,-2.2499,-2.2497,-2.2496,-2.2495,-2.2878,-2.2903,-2.287,-2.2874,-2.2855,-2.2843,-2.2861,-2.2822,-2.2827,-2.282,-2.2776,-2.2794,-2.2766,-2.2747,-2.2732,-2.2746,-2.2706,-2.2728,-2.2733,-2.274,-2.2753,-2.2562,-2.2744,-2.2743,-2.2742,-2.2742,-2.2741,0,-2.3076,-2.305,-2.3055,-2.3036,-2.304,-2.2981,-2.2961,-2.297,-2.2985,-2.2964,-2.2964,-2.2975,-2.298,-2.2935,-2.2934,-2.2954,-2.2926,-2.2956,-2.2954,-2.2951,-2.2788,-2.2775,-2.2979,-2.2979,-2.2979,-2.2979,-2.2979,-2.2979,-2.3179,-2.3218,-2.3184,-2.3214,-2.3188,-2.3202,-2.3197,-2.3186,-2.3169,-2.3185,-2.3188,-2.3158,-2.3128,-2.3125,-2.3127,-2.3114,-2.3118,-2.3158,-2.3136,-2.2985,-2.2962,-2.294,-2.2927,-2.316,-2.316,-2.3297,-2.3298,-2.3299]},{"header":{"parameterUnit":"m.s-1","parameterCategory":1,"la1":30.2991,"la2":30.254,"lo1":-89.0895,"lo2":-89.0444,"dy":0.0017,"dx":0.0017,"nx":28,"ny":28,"refTime":"2024-03-11T09:00:00:Z","depth":0,"parameterNumber":3,"parameterNumberName":"V-component_of_WINDS"},"data":[0,0,0,0,0,0,0,0,0,0,0,0,0,0,0,0,0,0,0,0,0,0,0,0,0,0,0,0,0,0,0,0,0,0,0,0,0,0,0,0,0,0,0,0,0,0,0,0,0,0,0,0,0,0,0,0,0,0,0.9141,0.914,0,0.9077,0.9077,0.9076,0.907,0.907,0.9071,0.9072,0.9002,0.8999,0.8997,0,0,0,0,0,0,0,0,0,0,0,0,0,0.9254,0.9252,0.9141,0.914,0.9139,0.9077,0.9077,0.9076,0.9069,0.907,0.9071,0.9072,0.9003,0.9,0.8997,0,0,0,0,0,0,0,0,0,0,0,0,0,0.9199,0.9252,0.9141,0.9129,0.9127,0.9078,0.9076,0.9075,0.9069,0.907,0.9071,0.9072,0.9004,0.9,0.8996,0.8953,0,0,0.8985,0.8983,0,0,0,0,0,0,0,0,0.9202,0.9195,0.9132,0.913,0.9128,0.9083,0.9091,0.9034,0.9069,0.9091,0.9072,0.9073,0.9027,0.9022,0.9008,0.895,0.8947,0.8984,0.8982,0.8981,0.898,0,0,0,0,0,0,0,0.9206,0.9198,0.9116,0.9131,0.9128,0.9126,0.9119,0.908,0.9054,0.9089,0.9089,0.9081,0.9027,0.9011,0.9006,0.8946,0.8985,0.8981,0.8979,0.8978,0.885,0.8849,0,0,0,0,0,0,0.9213,0.9201,0.9118,0.9114,0.9168,0.9123,0.9115,0.9096,0.9055,0.9049,0.9081,0.9081,0.9017,0.901,0.9003,0.895,0.8981,0.8977,0.8975,0.8851,0.885,0.8848,0,0,0,0,0,0,0.9215,0.9205,0.912,0.9157,0.9146,0.912,0.9098,0.9094,0.9079,0.9048,0.9043,0.907,0.9018,0.9009,0.8966,0.8948,0.8975,0.8972,0.8852,0.885,0.8849,0.8843,0,0,0,0,0,0,0.9218,0.9206,0.919,0.9157,0.9144,0.9085,0.9097,0.9092,0.9073,0.9073,0.9037,0.9032,0.9018,0.8972,0.8962,0.8943,0.8969,0.8854,0.8851,0.8849,0.8845,0.8841,0.8839,0,0,0,0,0,0.9223,0.919,0.9189,0.9179,0.9124,0.9084,0.9076,0.9062,0.9071,0.9054,0.9035,0.9033,0.8952,0.8967,0.8957,0.8936,0.8855,0.8852,0.885,0.8846,0.8842,0.8839,0,0,0,0,0,0,0.9219,0.9185,0.9184,0.914,0.9115,0.9083,0.9061,0.9058,0.9029,0.903,0.9013,0.9005,0.8963,0.8945,0.8963,0.8892,0.8904,0.8899,0.8905,0.8901,0.8898,0.8902,0.8966,0,0,0,0,0,0.9214,0.9186,0.9157,0.9121,0.9109,0.9087,0.9069,0.9061,0.9033,0.9022,0.9,0.8972,0.8941,0.892,0.8889,0.8843,0.8835,0.8824,0.8821,0.8818,0.8813,0.8788,0.8783,0.884,0.884,0.884,0,0,0.9202,0.918,0.9162,0.912,0.9099,0.9069,0.9078,0.9046,0.9023,0.9017,0.8976,0.8959,0.8927,0.8882,0.8862,0.8866,0.8796,0.8815,0.8813,0.881,0.8785,0.8779,0.8775,0.8838,0.8838,0.8839,0,0,0.9164,0.9145,0.9113,0.9093,0.9063,0.9049,0.9042,0.901,0.8999,0.8958,0.8953,0.8925,0.8871,0.8849,0.8831,0.8787,0.8783,0.8777,0.876,0.8735,0.8731,0.8727,0.8711,0.8705,0.8773,0.8773,0.8773,0,0.9152,0.9108,0.9096,0.9065,0.9046,0.9041,0.9008,0.8989,0.895,0.8937,0.8943,0.8876,0.8854,0.8805,0.8795,0.878,0.877,0.878,0.8733,0.8728,0.8724,0.8709,0.8703,0.8773,0.8773,0.8773,0.8773,0,0.9094,0.9064,0.9042,0.9006,0.8985,0.8953,0.8935,0.8915,0.8909,0.8895,0.8853,0.8827,0.8792,0.878,0.8773,0.8729,0.8733,0.8737,0.8748,0.8719,0.8704,0.8698,0.8772,0.8772,0.8772,0.8772,0,0,0.905,0.9011,0.9003,0.8987,0.8954,0.893,0.8898,0.8865,0.8847,0.8821,0.8793,0.8749,0.8752,0.8731,0.8722,0.8701,0.8667,0.8707,0.8706,0.8699,0.8618,0.8614,0.8608,0.8666,0.8665,0.8664,0.862,0,0.9008,0.8952,0.8942,0.8892,0.8864,0.8861,0.8832,0.8809,0.8795,0.8768,0.8752,0.8721,0.8728,0.8716,0.8695,0.8676,0.865,0.8679,0.8638,0.8637,0.8645,0.86,0.8596,0.8556,0.8614,0.8613,0.8612,0,0.8951,0.8926,0.8874,0.8846,0.8834,0.8809,0.8778,0.8753,0.8727,0.8718,0.8696,0.869,0.8656,0.867,0.8622,0.8642,0.8625,0.8613,0.8611,0.8606,0.8622,0.8592,0.8543,0.8537,0.8603,0.8604,0.8605,0,0.8924,0.8876,0.8839,0.8826,0.8793,0.8776,0.8761,0.8736,0.8717,0.869,0.8677,0.8646,0.8628,0.8604,0.8589,0.8601,0.8542,0.8556,0.8533,0.8534,0.8519,0.852,0.8466,0.8511,0.8511,0.8511,0.8511,0,0.8877,0.8845,0.8827,0.8804,0.8768,0.8757,0.8722,0.8707,0.8685,0.8658,0.8653,0.8628,0.8611,0.8584,0.8572,0.8534,0.8526,0.8517,0.8514,0.8517,0.8518,0.8504,0.8506,0.8509,0.851,0.851,0.851,0,0.8839,0.8826,0.8785,0.8759,0.8751,0.8726,0.8703,0.868,0.8667,0.8634,0.8625,0.8604,0.8572,0.8555,0.8514,0.8507,0.8463,0.8463,0.8473,0.8471,0.845,0.8452,0.8383,0.8374,0.8426,0.8426,0.8425,0,0.881,0.8786,0.8757,0.874,0.8726,0.8698,0.8679,0.8667,0.8648,0.8617,0.8598,0.8566,0.8539,0.8487,0.8467,0.8436,0.8434,0.8412,0.8429,0.8433,0.8433,0.8434,0.8431,0.8409,0.8408,0.8408,0.8407,0,0.8759,0.8754,0.8728,0.87,0.8679,0.8655,0.8633,0.8619,0.8603,0.8581,0.8549,0.8529,0.8488,0.8456,0.8424,0.8407,0.8404,0.8403,0.8396,0.8398,0.8404,0.84,0.8463,0.8404,0.8404,0.8405,0.8405,0.8405,0.8724,0.8702,0.8679,0.8651,0.8633,0.8612,0.859,0.8576,0.8549,0.8516,0.8511,0.8476,0.8451,0.8408,0.8391,0.8363,0.8367,0.8357,0.8355,0.8352,0.8351,0.841,0.8357,0.8357,0.8357,0.8357,0.8357,0,0.8672,0.8657,0.8632,0.8601,0.8579,0.858,0.8556,0.8536,0.8507,0.8484,0.8459,0.8422,0.8392,0.8371,0.8339,0.8321,0.8319,0.8313,0.8314,0.831,0.8349,0.8358,0.8315,0.8315,0.8316,0.8316,0.8316,0.8316,0.8642,0.8606,0.8599,0.8554,0.854,0.8507,0.8493,0.8474,0.8456,0.8416,0.8391,0.8378,0.8356,0.8323,0.8295,0.829,0.8278,0.8272,0.8266,0.8303,0.8307,0.8311,0.8319,0.827,0.827,0.8229,0.8229,0.8229]}]]